HAZ2224 ZGKL-ZSHC

Flight info

Callsign HAZ2224
Flight time N/A
Altitude 37100
Route QP9Y QP G586 WYN R473 NNX A599 ELNEX ELN92A
Aircraft A320/M-SDE3FGHIRWY/LB1

Departure

Time N/A
Airport Guilin Liangjiang International Airport (ZGKL)

Arrival

Time 2026-05-07 12:39
Airport Hangzhou Xiaoshan International Airport (ZSHC)
Time Latitude Longitude Altitude Speed Heading
2026-05-07 11:20 24.44083 114.12897 37065 ft 467 kts 18°
2026-05-07 11:20 24.48163 114.14185 37072 ft 457 kts
2026-05-07 11:21 24.53372 114.15248 37065 ft 457 kts
2026-05-07 11:21 24.59638 114.16541 37072 ft 457 kts
2026-05-07 11:22 24.65894 114.17875 37075 ft 457 kts
2026-05-07 11:22 24.72134 114.19221 37087 ft 459 kts
2026-05-07 11:23 24.78388 114.20578 37089 ft 458 kts
2026-05-07 11:23 24.84658 114.21939 37082 ft 458 kts
2026-05-07 11:24 24.90927 114.23300 37072 ft 459 kts
2026-05-07 11:24 24.97201 114.24668 37062 ft 458 kts
2026-05-07 11:25 25.03431 114.26234 37053 ft 463 kts 10°
2026-05-07 11:25 25.09529 114.28757 37059 ft 472 kts 19°
2026-05-07 11:26 25.15327 114.32307 37065 ft 479 kts 27°
2026-05-07 11:26 25.18632 114.34912 37057 ft 481 kts 31°
2026-05-07 11:27 25.20311 114.36315 37052 ft 482 kts 32°
2026-05-07 11:28 25.25659 114.40843 37046 ft 483 kts 32°
2026-05-07 11:28 25.30973 114.45334 37040 ft 482 kts 31°
2026-05-07 11:29 25.33406 114.47385 37039 ft 483 kts 31°
2026-05-07 11:29 25.34475 114.48286 37038 ft 483 kts 31°
2026-05-07 11:30 25.37158 114.50546 37034 ft 483 kts 31°
2026-05-07 11:31 25.41610 114.54296 37030 ft 483 kts 31°
2026-05-07 11:31 25.47847 114.59557 37036 ft 482 kts 31°
2026-05-07 11:32 25.54963 114.65567 37034 ft 484 kts 32°
2026-05-07 11:33 25.60299 114.70083 37037 ft 485 kts 32°
2026-05-07 11:33 25.65677 114.74635 37046 ft 486 kts 32°
2026-05-07 11:34 25.71931 114.79943 37049 ft 487 kts 32°
2026-05-07 11:34 25.76393 114.83732 37057 ft 487 kts 32°
2026-05-07 11:35 25.82436 114.89439 37058 ft 493 kts 39°
2026-05-07 11:35 25.87204 114.94964 37064 ft 496 kts 41°
2026-05-07 11:36 25.91121 114.99637 37054 ft 496 kts 41°
2026-05-07 11:36 25.95813 115.05225 37051 ft 497 kts 41°
2026-05-07 11:37 26.01296 115.11753 37043 ft 497 kts 41°
2026-05-07 11:37 26.05224 115.16433 37039 ft 495 kts 41°
2026-05-07 11:38 26.10729 115.22990 37038 ft 496 kts 41°
2026-05-07 11:38 26.15404 115.28570 37036 ft 496 kts 41°
2026-05-07 11:39 26.20111 115.34191 37044 ft 496 kts 41°
2026-05-07 11:39 26.24809 115.39809 37055 ft 497 kts 41°
2026-05-07 11:40 26.29484 115.45410 37071 ft 496 kts 41°
2026-05-07 11:40 26.34183 115.51045 37084 ft 495 kts 41°
2026-05-07 11:41 26.38075 115.55718 37082 ft 495 kts 41°
2026-05-07 11:41 26.43530 115.62276 37078 ft 494 kts 41°
2026-05-07 11:42 26.48205 115.67904 37073 ft 495 kts 42°
2026-05-07 11:42 26.52098 115.72591 37071 ft 495 kts 42°
2026-05-07 11:43 26.57537 115.79160 37074 ft 495 kts 42°
2026-05-07 11:43 26.62220 115.84819 37075 ft 495 kts 42°
2026-05-07 11:44 26.66106 115.89520 37074 ft 497 kts 42°
2026-05-07 11:44 26.71544 115.96111 37073 ft 496 kts 42°
2026-05-07 11:45 26.75459 116.00860 37070 ft 497 kts 42°
2026-05-07 11:45 26.80114 116.06518 37071 ft 496 kts 41°
2026-05-07 11:46 26.84786 116.12202 37073 ft 496 kts 42°
2026-05-07 11:46 26.90230 116.18837 37076 ft 496 kts 42°
2026-05-07 11:47 26.94890 116.24487 37077 ft 496 kts 41°
2026-05-07 11:47 26.98826 116.29219 37080 ft 495 kts 41°
2026-05-07 11:48 27.04284 116.35793 37080 ft 496 kts 41°
2026-05-07 11:48 27.08198 116.40525 37082 ft 496 kts 41°
2026-05-07 11:49 27.13674 116.47151 37073 ft 496 kts 41°
2026-05-07 11:49 27.17566 116.51872 37066 ft 496 kts 41°
2026-05-07 11:50 27.22257 116.57533 37068 ft 496 kts 40°
2026-05-07 11:50 27.27864 116.64037 37068 ft 496 kts 40°
2026-05-07 11:51 27.32634 116.69566 37068 ft 496 kts 40°
2026-05-07 11:51 27.36632 116.74226 37067 ft 497 kts 40°
2026-05-07 11:52 27.41429 116.79827 37066 ft 497 kts 40°
2026-05-07 11:52 27.47003 116.86356 37073 ft 497 kts 40°
2026-05-07 11:53 27.50993 116.91029 37082 ft 497 kts 40°
2026-05-07 11:53 27.55812 116.96626 37086 ft 497 kts 39°
2026-05-07 11:54 27.61428 117.03100 37093 ft 498 kts 40°
2026-05-07 11:54 27.65437 117.07739 37098 ft 497 kts 39°
2026-05-07 11:55 27.71068 117.14265 37099 ft 498 kts 39°
2026-05-07 11:55 27.75097 117.18942 37102 ft 498 kts 39°
2026-05-07 11:56 27.80721 117.25481 37112 ft 499 kts 39°
2026-05-07 11:56 27.84744 117.30168 37123 ft 499 kts 39°
2026-05-07 11:57 27.90376 117.36733 37116 ft 499 kts 39°
2026-05-07 11:57 27.95189 117.42355 37116 ft 500 kts 39°
2026-05-07 11:58 27.99204 117.47053 37109 ft 499 kts 39°
2026-05-07 11:58 28.04857 117.53672 37109 ft 499 kts 39°
2026-05-07 11:59 28.09657 117.59294 37106 ft 500 kts 39°
2026-05-07 11:59 28.14474 117.64943 37107 ft 500 kts 39°
2026-05-07 12:00 28.18508 117.69679 37107 ft 500 kts 39°
2026-05-07 12:00 28.24116 117.76274 37098 ft 500 kts 39°
2026-05-07 12:01 28.28953 117.81979 37096 ft 500 kts 39°
2026-05-07 12:01 28.31330 117.84782 36980 ft 500 kts 39°
2026-05-07 12:01 28.32957 117.86701 36790 ft 499 kts 39°
2026-05-07 12:01 28.35354 117.89538 36509 ft 496 kts 39°
2026-05-07 12:02 28.37715 117.92333 36135 ft 490 kts 39°
2026-05-07 12:02 28.40054 117.95099 35531 ft 486 kts 39°
2026-05-07 12:02 28.43162 117.98795 34460 ft 488 kts 40°
2026-05-07 12:02 28.44709 118.00680 33882 ft 490 kts 41°
2026-05-07 12:03 28.47789 118.04462 32695 ft 493 kts 42°
2026-05-07 12:03 28.50127 118.07346 31793 ft 495 kts 42°
2026-05-07 12:03 28.51667 118.09247 31201 ft 496 kts 42°
2026-05-07 12:03 28.54775 118.13083 29996 ft 498 kts 43°
2026-05-07 12:04 28.56339 118.15012 29578 ft 494 kts 43°
2026-05-07 12:04 28.58631 118.17850 29048 ft 487 kts 43°
2026-05-07 12:04 28.60913 118.20672 28438 ft 482 kts 43°
2026-05-07 12:04 28.63165 118.23455 27817 ft 478 kts 43°
2026-05-07 12:05 28.66163 118.27161 27025 ft 471 kts 43°
2026-05-07 12:05 28.68342 118.29856 26449 ft 465 kts 43°
2026-05-07 12:05 28.70516 118.32545 25852 ft 461 kts 43°
2026-05-07 12:05 28.71966 118.34341 25467 ft 457 kts 43°
2026-05-07 12:06 28.74805 118.37859 24664 ft 452 kts 43°
2026-05-07 12:06 28.76200 118.39588 24266 ft 449 kts 43°
2026-05-07 12:06 28.79006 118.43066 23486 ft 444 kts 43°
2026-05-07 12:06 28.80394 118.44788 23108 ft 441 kts 44°
2026-05-07 12:07 28.82449 118.47341 22559 ft 436 kts 44°
2026-05-07 12:07 28.84483 118.49871 22015 ft 432 kts 44°
2026-05-07 12:07 28.86504 118.52382 21510 ft 428 kts 44°
2026-05-07 12:07 28.88509 118.54878 20984 ft 424 kts 44°
2026-05-07 12:08 28.91137 118.58153 20287 ft 419 kts 44°
2026-05-07 12:08 28.92448 118.59786 19946 ft 417 kts 44°
2026-05-07 12:08 28.94373 118.62188 19426 ft 413 kts 44°
2026-05-07 12:08 28.96314 118.64606 18908 ft 410 kts 44°
2026-05-07 12:09 28.98226 118.66994 18402 ft 406 kts 45°
2026-05-07 12:09 29.00743 118.70138 17729 ft 401 kts 45°
2026-05-07 12:09 29.01991 118.71700 17388 ft 399 kts 44°
2026-05-07 12:09 29.03863 118.74038 16893 ft 395 kts 45°
2026-05-07 12:10 29.05692 118.76325 16399 ft 392 kts 45°
2026-05-07 12:10 29.07533 118.78629 15884 ft 390 kts 45°
2026-05-07 12:10 29.09353 118.80907 15378 ft 388 kts 45°
2026-05-07 12:10 29.11755 118.83914 14745 ft 383 kts 45°
2026-05-07 12:11 29.12950 118.85414 14422 ft 381 kts 46°
2026-05-07 12:11 29.14720 118.87633 13930 ft 379 kts 46°
2026-05-07 12:11 29.17086 118.90604 13256 ft 375 kts 47°
2026-05-07 12:11 29.18240 118.92056 12926 ft 373 kts 46°
2026-05-07 12:12 29.19980 118.94246 12481 ft 368 kts 46°
2026-05-07 12:12 29.22250 118.97102 11844 ft 362 kts 46°
2026-05-07 12:12 29.23364 118.98505 11518 ft 360 kts 47°
2026-05-07 12:12 29.25593 119.01311 10907 ft 353 kts 47°
2026-05-07 12:13 29.27220 119.03362 10667 ft 341 kts 47°
2026-05-07 12:13 29.28272 119.04691 10530 ft 333 kts 46°
2026-05-07 12:13 29.29797 119.06616 10331 ft 321 kts 47°
2026-05-07 12:13 29.31755 119.09090 10078 ft 307 kts 46°
2026-05-07 12:14 29.33149 119.10854 9871 ft 298 kts 46°
2026-05-07 12:14 29.34540 119.12611 9549 ft 295 kts 46°
2026-05-07 12:14 29.35463 119.13776 9312 ft 293 kts 47°
2026-05-07 12:14 29.37269 119.16058 8932 ft 288 kts 47°
2026-05-07 12:15 29.38162 119.17189 8906 ft 288 kts 47°
2026-05-07 12:15 29.39507 119.18898 8907 ft 289 kts 47°
2026-05-07 12:15 29.40861 119.20616 8903 ft 290 kts 46°
2026-05-07 12:15 29.42672 119.22912 8901 ft 290 kts 47°
2026-05-07 12:16 29.43570 119.24053 8903 ft 290 kts 46°
2026-05-07 12:16 29.44915 119.25764 8906 ft 289 kts 47°
2026-05-07 12:16 29.46268 119.27482 8903 ft 289 kts 47°
2026-05-07 12:16 29.47617 119.29198 8906 ft 289 kts 47°
2026-05-07 12:17 29.48953 119.30900 8910 ft 289 kts 47°
2026-05-07 12:17 29.50752 119.33190 8911 ft 289 kts 47°
2026-05-07 12:17 29.52091 119.34896 8910 ft 289 kts 47°
2026-05-07 12:17 29.53004 119.36059 8912 ft 289 kts 47°
2026-05-07 12:18 29.54799 119.38345 8908 ft 289 kts 47°
2026-05-07 12:18 29.55695 119.39487 8913 ft 289 kts 47°
2026-05-07 12:18 29.57482 119.41765 8914 ft 289 kts 46°
2026-05-07 12:18 29.58381 119.42910 8913 ft 289 kts 46°
2026-05-07 12:19 29.60174 119.45194 8915 ft 289 kts 46°
2026-05-07 12:19 29.61081 119.46346 8915 ft 289 kts 46°
2026-05-07 12:19 29.62478 119.47980 8917 ft 288 kts 41°
2026-05-07 12:19 29.63987 119.49510 8916 ft 288 kts 37°
2026-05-07 12:20 29.65579 119.50899 8918 ft 287 kts 33°
2026-05-07 12:20 29.67230 119.52200 8919 ft 287 kts 32°
2026-05-07 12:20 29.68889 119.53487 8922 ft 287 kts 33°
2026-05-07 12:20 29.71097 119.55203 8920 ft 287 kts 32°
2026-05-07 12:21 29.72190 119.56056 8920 ft 287 kts 32°
2026-05-07 12:21 29.74413 119.57790 8917 ft 287 kts 32°
2026-05-07 12:21 29.75507 119.58643 8893 ft 285 kts 32°
2026-05-07 12:21 29.77690 119.60350 8450 ft 283 kts 32°
2026-05-07 12:22 29.79297 119.61607 8094 ft 280 kts 32°
2026-05-07 12:22 29.80377 119.62453 7947 ft 276 kts 32°
2026-05-07 12:22 29.82502 119.64114 7923 ft 277 kts 32°
2026-05-07 12:22 29.84099 119.65363 7917 ft 278 kts 32°
2026-05-07 12:23 29.85719 119.66543 7917 ft 277 kts 30°
2026-05-07 12:23 29.86851 119.67281 7917 ft 277 kts 27°
2026-05-07 12:23 29.89130 119.68671 7920 ft 277 kts 26°
2026-05-07 12:23 29.90254 119.69348 7914 ft 277 kts 26°
2026-05-07 12:24 29.91968 119.70381 7909 ft 277 kts 26°
2026-05-07 12:24 29.93676 119.71412 7910 ft 277 kts 26°
2026-05-07 12:24 29.95391 119.72450 7910 ft 277 kts 26°
2026-05-07 12:24 29.97096 119.73483 7914 ft 277 kts 26°
2026-05-07 12:25 29.98811 119.74522 7906 ft 277 kts 26°
2026-05-07 12:25 30.00498 119.75543 7758 ft 272 kts 26°
2026-05-07 12:25 30.02688 119.76949 7221 ft 274 kts 35°
2026-05-07 12:25 30.03626 119.77932 6969 ft 275 kts 47°
2026-05-07 12:26 30.04682 119.79796 6611 ft 274 kts 59°
2026-05-07 12:26 30.05546 119.81719 6297 ft 270 kts 60°
2026-05-07 12:26 30.06388 119.83637 5985 ft 266 kts 60°
2026-05-07 12:26 30.07221 119.85520 5901 ft 265 kts 60°
2026-05-07 12:27 30.08039 119.87363 5896 ft 249 kts 59°
2026-05-07 12:27 30.08813 119.89097 5895 ft 234 kts 59°
2026-05-07 12:27 30.09537 119.90717 5896 ft 224 kts 58°
2026-05-07 12:27 30.10491 119.92834 5912 ft 225 kts 59°
2026-05-07 12:28 30.10975 119.93906 5902 ft 224 kts 59°
2026-05-07 12:28 30.11689 119.95497 5912 ft 225 kts 58°
2026-05-07 12:28 30.12660 119.97649 5903 ft 226 kts 59°
2026-05-07 12:28 30.13136 119.98717 5908 ft 226 kts 59°
2026-05-07 12:29 30.14100 120.00876 5909 ft 226 kts 58°
2026-05-07 12:29 30.14580 120.01955 5901 ft 225 kts 59°
2026-05-07 12:29 30.15320 120.04189 5860 ft 229 kts 85°
2026-05-07 12:29 30.14877 120.05945 5733 ft 231 kts 124°
2026-05-07 12:30 30.13647 120.07103 5589 ft 228 kts 152°
2026-05-07 12:30 30.12238 120.07888 5458 ft 221 kts 153°
2026-05-07 12:30 30.11043 120.08808 5395 ft 196 kts 126°
2026-05-07 12:30 30.10609 120.09704 5065 ft 188 kts 102°
2026-05-07 12:31 30.10691 120.11537 4618 ft 162 kts 63°
2026-05-07 12:31 30.11170 120.12666 4223 ft 157 kts 56°
2026-05-07 12:31 30.11698 120.13760 3936 ft 156 kts 55°
2026-05-07 12:31 30.12047 120.14490 3919 ft 156 kts 55°
2026-05-07 12:32 30.12737 120.15977 3925 ft 156 kts 55°
2026-05-07 12:32 30.13202 120.17018 3885 ft 144 kts 56°
2026-05-07 12:32 30.13675 120.18059 3907 ft 148 kts 56°
2026-05-07 12:32 30.14162 120.19106 3906 ft 148 kts 56°
2026-05-07 12:33 30.15128 120.21191 3658 ft 147 kts 56°
2026-05-07 12:33 30.15601 120.22240 3455 ft 146 kts 56°
2026-05-07 12:33 30.15908 120.22927 3323 ft 146 kts 57°
2026-05-07 12:34 30.16523 120.24316 3066 ft 145 kts 56°
2026-05-07 12:34 30.16977 120.25347 2879 ft 144 kts 56°
2026-05-07 12:34 30.17427 120.26369 2693 ft 143 kts 56°
2026-05-07 12:34 30.17879 120.27399 2511 ft 142 kts 56°
2026-05-07 12:35 30.18168 120.28057 2379 ft 135 kts 57°
2026-05-07 12:35 30.18567 120.28973 2178 ft 122 kts 56°
2026-05-07 12:35 30.18944 120.29829 2024 ft 119 kts 56°
2026-05-07 12:35 30.19450 120.30969 1835 ft 118 kts 56°
2026-05-07 12:36 30.19823 120.31812 1696 ft 118 kts 56°
2026-05-07 12:36 30.20075 120.32381 1595 ft 118 kts 56°
2026-05-07 12:36 30.20580 120.33522 1402 ft 120 kts 56°
2026-05-07 12:36 30.20834 120.34099 1284 ft 120 kts 56°
2026-05-07 12:37 30.21343 120.35249 1074 ft 122 kts 56°
2026-05-07 12:37 30.21729 120.36123 915 ft 123 kts 56°
2026-05-07 12:37 30.22121 120.37008 754 ft 122 kts 57°
2026-05-07 12:37 30.22504 120.37874 588 ft 123 kts 56°
2026-05-07 12:38 30.22912 120.38775 462 ft 126 kts 55°
2026-05-07 12:38 30.23301 120.39682 299 ft 127 kts 58°
2026-05-07 12:38 30.23704 120.40589 130 ft 125 kts 57°
2026-05-07 12:38 30.24108 120.41457 41 ft 109 kts 59°
2026-05-07 12:39 30.24379 120.42059 38 ft 60 kts 62°
2026-05-07 12:39 30.24488 120.42320 38 ft 23 kts 70°
2026-05-07 12:39 30.24547 120.42497 38 ft 23 kts 77°
2026-05-07 12:39 30.24556 120.42680 38 ft 22 kts 93°
2026-05-07 12:40 30.24556 120.42816 38 ft 14 kts 84°
2026-05-07 12:40 30.24546 120.42925 38 ft 12 kts 122°
2026-05-07 12:40 30.24472 120.42980 38 ft 13 kts 153°
2026-05-07 12:40 30.24416 120.43041 37 ft 8 kts 96°
2026-05-07 12:41 30.24395 120.43081 36 ft 9 kts 142°
2026-05-07 12:41 30.24355 120.43105 36 ft 0 kts 152°